Theta_e
301 293 289 289 291 293 294 295 295 296 295 294 294 292 291 292 294 294 294 295 296 293 290 292 292 292 293 295 296 297 297 295 296 296 297 298 299 299 298 300 300 300 301 305 309 312 315 318 321 321 321 322 324 325 327 327 327 329 329 328 328 329 329 329 329 329 328 326 324 323 324 324 325 326 326 327 327 328 328 330 332 333 333 332 331 331
297 291 291 293 295 295 295 296 296 296 295 293 294 291 290 293 291 294 293 294 296 293 290 292 292 293 294 295 296 296 296 296 297 297 297 298 298 299 299 299 301 301 308 308 307 309 310 312 314 316 318 317 320 321 323 324 326 327 328 327 328 329 329 329 329 328 328 327 326 325 325 324 325 326 326 325 327 328 329 328 329 331 333 333 332 329
291 289 294 296 296 296 296 296 296 295 296 295 293 292 290 290 293 294 294 295 295 293 289 291 291 292 294 295 297 298 298 298 299 299 299 298 297 298 300 300 301 302 308 305 305 307 307 308 308 308 311 316 319 319 320 322 323 324 326 326 327 328 328 327 327 327 327 326 326 326 324 325 322 322 325 326 325 327 328 330 331 331 330 331 331 330
288 291 295 297 296 296 296 295 295 297 298 293 293 289 287 293 289 288 291 293 294 291 292 290 289 291 295 295 296 297 299 299 300 301 301 300 298 298 299 301 302 302 307 305 304 304 306 307 307 305 305 308 310 315 316 319 321 323 323 324 326 326 326 326 325 324 325 325 324 324 324 325 324 322 320 322 323 323 324 324 327 328 328 330 331 331
290 295 295 296 296 296 294 296 294 292 289 294 295 292 291 294 293 292 290 292 293 293 293 290 288 289 291 292 293 297 298 298 298 298 299 301 301 301 304 303 304 303 305 305 304 303 303 305 306 305 305 305 306 307 314 316 319 322 322 323 325 324 325 325 323 324 324 324 322 322 320 320 319 319 318 318 318 321 321 321 322 323 324 326 325 327
293 293 296 295 295 295 295 292 293 294 288 291 295 295 295 295 292 292 292 290 288 287 291 290 281 281 288 291 293 295 294 296 297 298 299 300 300 300 299 300 301 304 304 303 303 303 302 305 305 304 304 304 304 304 307 311 316 317 320 321 322 322 323 324 323 323 323 322 322 320 319 316 314 313 313 317 315 315 316 317 318 320 322 324 325 326
294 292 296 295 294 295 295 293 295 295 289 288 290 297 295 294 294 292 291 291 283 281 291 294 282 279 289 290 291 292 293 294 296 296 297 298 299 298 299 299 299 299 299 301 301 302 302 301 302 303 303 304 304 304 305 307 310 313 317 319 321 321 321 322 321 322 321 320 320 320 319 317 317 315 314 314 315 316 316 318 318 319 321 324 325 323
292 292 294 296 295 294 293 290 296 294 289 287 294 298 297 295 294 293 294 291 288 291 292 291 291 281 281 288 293 293 292 292 293 294 295 296 296 297 298 299 299 300 300 301 301 300 300 300 300 302 303 303 303 303 305 305 306 309 312 316 318 318 319 319 320 321 321 320 318 318 317 317 316 316 314 317 316 315 316 318 317 318 318 320 323 323
294 291 295 294 295 291 291 294 298 296 292 292 295 298 296 295 295 295 293 289 290 285 282 286 291 281 279 287 293 292 291 290 291 293 295 295 295 297 298 300 301 303 303 303 303 303 301 300 299 299 302 304 305 304 305 305 304 306 309 313 314 315 316 318 318 319 318 318 318 318 317 314 313 316 315 314 314 317 317 315 315 315 316 318 321 322
296 294 296 297 294 291 295 292 294 297 291 294 297 299 298 298 297 296 289 289 287 282 280 284 289 280 281 288 289 291 288 289 290 292 294 295 296 298 299 299 300 300 300 300 300 301 301 299 301 304 304 304 304 304 305 304 305 307 309 312 312 312 314 317 316 318 317 315 317 317 315 314 312 311 312 312 311 311 312 310 313 316 318 318 319 320
294 296 294 297 294 296 292 292 295 296 297 297 297 295 295 293 290 289 289 287 285 279 280 287 290 285 279 285 287 287 290 290 291 292 296 297 298 298 299 299 300 300 301 299 298 301 303 303 303 303 304 304 304 305 306 306 306 306 309 310 310 312 314 315 315 316 315 313 315 315 313 314 313 312 311 311 311 310 310 311 313 315 316 317 317 319
294 295 295 295 296 294 296 294 297 297 297 298 294 290 290 287 287 285 284 284 279 276 283 281 287 289 278 282 291 291 291 291 292 293 294 295 296 297 297 298 298 299 300 301 301 301 301 302 302 303 304 304 305 305 306 306 308 308 309 310 311 311 313 313 314 314 314 313 311 312 313 314 314 314 313 311 309 311 312 314 314 314 314 315 314 314
288 291 295 296 297 295 296 292 292 295 296 295 290 290 283 281 282 278 282 277 276 276 280 282 285 283 283 288 289 290 290 293 293 296 295 296 296 297 297 298 298 300 300 301 300 300 301 301 303 303 303 305 306 307 307 308 308 309 310 311 311 311 311 312 311 312 312 312 311 312 313 315 316 313 311 313 312 312 312 312 311 309 308 308 311 310
288 293 293 295 295 295 298 288 286 285 289 291 288 282 280 277 275 272 276 279 280 280 280 282 285 280 284 287 293 294 296 292 294 296 296 296 297 297 297 298 299 299 300 301 302 301 301 303 302 304 305 305 306 307 308 309 309 310 311 311 310 310 310 310 310 312 313 313 314 315 316 316 316 313 312 311 310 310 310 310 309 309 309 309 309 309
281 281 287 291 286 296 294 294 291 289 290 290 292 290 282 282 278 273 276 274 275 278 280 281 279 278 279 283 292 291 293 293 294 296 294 295 296 296 296 298 299 299 301 301 301 302 303 304 303 304 304 304 305 306 307 307 308 310 311 311 310 310 310 310 311 313 314 316 317 317 316 314 311 310 309 309 310 310 309 307 308 307 308 307 308 308
285 284 290 295 293 293 293 297 298 295 290 291 293 294 286 282 287 279 282 282 278 275 277 278 277 281 285 291 290 291 292 292 293 294 294 294 296 295 295 296 297 299 300 301 300 301 301 301 302 303 302 303 303 304 305 305 305 307 309 309 309 309 310 310 311 312 312 312 313 311 311 309 308 307 307 307 307 307 306 306 306 306 306 307 306 307
284 281 291 295 296 291 293 294 295 296 283 288 290 283 287 292 285 280 280 282 280 278 275 281 281 284 288 291 292 291 290 291 292 293 293 294 294 295 295 297 298 299 300 300 301 300 301 301 301 301 301 301 303 303 303 303 303 304 306 306 306 306 306 306 306 306 307 307 307 306 306 305 305 305 304 305 305 305 305 304 304 304 304 304 305 306
283 285 289 290 290 293 293 292 296 293 294 288 283 288 293 293 291 285 279 279 278 274 276 280 278 278 283 281 289 289 289 289 290 291 292 294 294 294 297 298 299 300 300 301 301 301 300 300 300 300 300 300 300 300 300 301 301 302 304 304 304 303 303 303 304 304 304 305 304 304 304 304 304 304 303 304 303 303 303 302 302 302 303 302 303 303
292 281 286 288 291 292 295 296 293 295 294 291 289 296 288 281 281 282 282 275 275 273 275 278 279 279 280 285 286 287 287 289 290 291 291 293 294 294 298 298 299 300 300 300 300 300 300 300 299 299 298 299 299 299 299 300 301 301 301 302 302 302 302 302 303 303 304 304 305 305 304 302 303 303 303 303 302 302 302 302 302 301 301 302 302 302
293 284 283 289 291 292 293 291 284 286 294 295 295 290 293 286 284 282 281 283 281 275 275 275 278 276 285 285 288 287 290 290 290 291 292 293 295 295 298 299 299 299 299 300 300 300 300 299 298 298 298 299 300 300 300 300 300 300 300 300 300 301 301 301 301 302 302 302 303 303 302 301 302 301 302 301 301 302 301 300 300 300 299 299 299 299
285 287 282 285 291 291 284 287 286 288 285 285 284 284 286 286 288 285 285 282 279 277 275 275 274 279 285 291 291 291 291 292 292 292 293 294 295 295 298 300 300 300 299 299 300 300 299 299 298 299 299 299 298 299 299 299 300 300 300 300 300 300 300 301 301 301 301 301 301 300 300 299 299 300 300 300 300 299 299 299 298 297 296 295 296 295
286 284 283 283 284 283 287 292 292 293 291 289 288 286 288 285 282 279 279 287 283 281 276 276 275 281 292 293 292 291 292 292 293 294 294 294 294 296 299 300 300 300 299 300 300 299 298 298 298 298 298 296 297 297 297 298 298 298 298 299 299 299 299 299 300 300 300 299 300 299 299 298 298 299 298 298 297 296 296 295 295 293 293 293 293 294
291 287 285 282 284 286 291 292 292 293 290 293 291 288 290 287 286 281 278 280 283 282 281 280 277 277 291 291 291 290 291 290 290 294 295 294 295 297 300 300 300 300 300 300 299 299 298 298 297 297 297 296 296 296 296 296 297 296 296 296 296 297 297 298 298 298 298 298 297 297 296 296 295 295 294 294 294 293 293 292 292 292 293 294 293 292
293 286 284 284 285 288 290 292 291 292 293 291 290 289 290 287 287 286 284 284 281 281 279 280 276 278 292 291 289 290 290 290 289 289 295 295 296 298 299 299 299 299 299 299 299 298 298 297 295 296 296 297 297 295 296 296 296 296 295 295 294 294 295 295 296 296 296 295 295 294 294 294 293 292 292 292 292 291 290 291 292 292 292 291 291 292
286 286 287 282 281 282 284 288 288 291 291 285 285 290 290 291 289 285 283 284 282 282 281 279 276 281 289 288 290 288 289 289 289 290 290 296 296 298 299 299 299 299 299 298 298 297 296 295 295 296 296 296 295 295 295 295 295 294 294 294 293 293 293 294 294 294 293 293 292 292 292 291 291 291 290 291 290 290 290 290 290 290 290 290 290 289
288 286 286 280 277 275 275 277 280 282 284 286 287 289 291 290 288 285 283 282 280 281 282 279 279 286 289 287 289 289 290 289 290 289 288 293 296 299 299 299 299 298 298 298 297 296 295 296 295 295 294 295 294 294 294 293 293 293 293 293 292 293 293 293 293 293 292 291 291 290 290 290 289 289 289 290 290 289 289 289 289 287 287 288 289 288
284 286 287 286 284 282 284 285 288 289 285 284 285 288 288 290 291 289 286 283 281 282 282 282 285 286 288 288 287 288 289 289 289 289 289 291 296 297 297 297 297 297 297 296 296 296 295 294 295 295 294 294 294 293 293 293 293 292 292 292 292 292 292 293 293 292 292 291 290 290 289 289 289 289 289 289 289 289 289 288 287 287 288 287 288 287
284 284 286 287 287 288 289 288 290 291 286 288 287 287 289 289 289 288 285 284 288 284 281 286 287 285 288 290 287 288 289 288 290 290 289 290 295 297 297 296 296 295 295 296 295 296 295 295 294 293 293 293 292 292 292 292 292 291 291 291 291 291 292 293 292 291 291 290 290 290 290 290 289 289 289 289 288 287 287 287 286 286 286 286 286 286
284 283 286 287 287 289 289 290 291 291 290 289 289 289 287 289 288 286 287 289 288 284 283 287 288 286 289 291 290 290 290 291 291 292 292 291 295 296 296 295 296 295 295 296 296 295 294 294 293 293 292 292 291 291 290 291 291 291 291 290 290 291 291 291 290 290 290 289 289 289 289 289 288 288 288 287 286 286 286 286 284 285 284 284 285 287
287 282 285 287 285 287 288 290 293 291 290 289 289 289 290 289 289 289 289 290 289 287 289 289 289 289 291 292 292 292 292 293 292 291 291 293 296 296 296 295 295 296 295 296 296 296 295 294 293 292 292 291 291 291 291 291 291 291 290 290 290 290 290 289 289 289 289 289 288 288 288 288 287 287 286 285 285 285 284 284 284 284 283 284 284 284
289 282 290 285 282 283 287 289 291 292 291 288 289 290 290 290 290 290 290 290 289 288 289 289 288 288 292 293 293 295 293 293 292 291 292 294 295 295 295 295 296 296 296 296 296 295 294 293 292 292 291 291 291 291 291 291 291 290 290 289 289 289 288 288 288 287 287 287 287 287 286 286 286 285 286 285 284 283 284 284 284 284 284 284 284 285
289 283 286 284 281 281 284 285 287 288 288 287 286 287 289 289 287 288 287 290 287 286 287 287 285 287 293 294 294 293 291 292 292 292 292 293 296 296 295 295 295 296 296 296 295 295 293 292 292 291 291 291 291 291 291 290 290 289 289 288 288 288 287 287 287 287 286 286 286 285 285 285 285 285 285 284 284 283 283 283 283 284 284 284 284 285
285 283 283 283 281 281 283 285 283 284 285 283 284 287 290 291 292 291 291 291 291 291 286 284 286 292 293 293 293 292 291 291 292 292 291 293 295 296 296 296 296 296 296 296 296 295 293 292 292 291 291 290 291 290 290 290 289 288 288 288 288 288 287 287 286 286 286 285 285 285 285 284 284 284 284 283 283 283 283 283 283 283 283 283 283 283
284 284 282 284 279 281 280 282 282 279 277 279 290 292 292 290 291 289 288 290 292 292 290 292 292 294 293 293 293 293 290 291 293 294 295 296 295 295 295 295 296 296 296 296 296 294 293 292 291 291 290 290 290 290 290 289 289 288 288 288 287 287 287 287 286 286 285 285 285 285 285 284 283 283 282 282 282 283 283 283 283 282 282 282 282 282
284 284 282 283 280 278 278 282 278 275 277 288 292 293 293 293 292 291 292 292 293 293 293 292 293 293 293 293 293 295 295 294 293 293 294 294 295 295 295 295 295 295 296 295 294 293 292 292 291 290 289 289 289 288 288 288 288 288 287 287 287 286 286 286 286 285 285 285 284 284 284 283 282 282 281 282 281 281 281 281 280 280 281 282 281 281
284 284 283 283 282 281 277 278 273 276 284 289 290 292 293 292 292 290 289 292 293 293 293 292 294 295 295 295 295 295 295 293 293 292 293 294 295 296 294 295 295 295 295 295 294 293 292 291 290 289 288 288 288 288 288 288 287 287 287 286 286 286 285 285 285 284 284 284 283 283 282 281 280 280 280 280 280 280 280 279 279 279 280 280 280 280
288 286 285 282 283 278 277 278 279 283 284 285 286 289 290 287 286 287 284 288 292 294 293 293 294 295 295 296 296 293 291 292 292 293 292 292 295 295 297 297 297 296 297 296 294 293 291 290 289 288 288 288 288 287 287 287 287 286 286 285 285 285 284 284 284 283 283 282 282 281 281 280 279 279 279 278 278 277 277 277 278 278 279 278 279 278
291 285 285 283 281 284 279 276 277 276 276 282 289 291 293 293 293 292 287 286 293 293 295 294 293 294 295 293 292 290 290 289 288 290 292 290 293 295 293 295 294 295 294 292 290 290 289 288 287 287 287 287 286 287 287 286 286 286 285 284 284 283 283 282 282 282 282 281 281 280 280 279 278 277 277 276 276 276 276 276 276 277 278 277 277 277
289 289 286 285 283 282 281 277 276 275 279 286 287 291 292 293 293 290 285 284 292 293 294 294 293 294 294 294 289 288 289 286 288 292 293 292 292 292 292 291 291 292 292 291 290 288 287 287 287 286 286 286 285 286 286 286 285 285 284 283 283 282 282 281 281 281 280 280 280 279 279 278 277 276 275 275 275 275 275 274 275 276 276 275 274 276
284 285 284 283 282 283 281 278 277 278 281 284 289 288 292 293 294 288 278 280 292 290 292 292 293 294 293 291 290 290 289 288 289 294 291 292 290 289 290 290 290 290 289 288 288 288 287 286 286 285 285 284 284 285 285 285 285 284 283 282 281 280 280 279 280 280 280 280 279 278 277 276 276 275 275 274 274 274 274 275 275 273 273 273 274 274
282 283 284 282 283 284 284 280 280 282 289 289 289 288 289 294 291 282 277 285 287 291 292 294 293 294 294 291 291 290 291 295 292 288 284 288 288 287 287 287 288 288 288 287 286 286 285 285 285 284 283 283 283 283 284 284 283 282 281 280 279 278 278 278 279 279 279 279 279 278 277 277 276 275 275 275 275 275 275 274 273 273 272 272 273 273
281 282 283 283 282 282 283 280 281 283 288 289 286 290 292 289 281 281 287 288 289 287 290 292 293 293 293 293 292 294 293 286 285 285 286 285 286 285 286 286 285 284 284 285 285 285 284 283 281 280 280 280 281 282 283 283 282 280 279 278 277 277 278 279 279 279 280 280 279 279 278 278 277 277 277 278 277 275 273 273 273 272 271 272 272 273
283 281 280 281 282 281 282 280 280 276 286 292 290 287 288 287 286 287 287 286 289 288 289 290 290 290 290 290 291 292 285 285 285 285 285 284 285 285 285 285 284 284 283 283 283 283 283 281 279 278 277 278 278 280 281 281 279 278 277 276 276 277 278 279 280 280 280 279 278 277 277 277 276 277 277 276 275 274 272 273 272 270 271 272 272 273
287 282 282 283 285 280 280 278 279 285 287 292 292 286 284 290 290 289 291 288 287 287 287 288 289 290 289 289 289 286 285 285 283 284 284 283 283 283 283 283 283 283 283 282 282 282 281 279 277 276 276 276 277 278 279 279 277 276 275 275 276 277 277 278 279 279 278 277 276 275 275 275 275 276 275 274 273 272 271 270 270 270 272 272 271 271
288 286 287 283 287 284 283 285 288 285 288 290 293 292 293 293 290 289 289 289 289 287 286 288 288 289 289 288 287 287 284 284 284 285 284 283 283 283 283 283 283 282 282 281 281 280 279 277 275 274 274 274 274 275 276 277 276 275 274 275 277 277 276 277 277 277 275 274 274 273 273 273 274 274 274 272 270 270 270 269 269 269 269 270 270 270
287 289 288 288 286 290 290 289 289 286 287 289 287 287 290 291 288 287 288 288 290 288 287 287 287 287 288 288 289 286 287 286 285 284 283 283 282 282 282 282 281 281 280 280 279 279 277 276 274 273 272 272 272 273 274 274 274 273 274 276 276 276 275 275 275 274 273 273 273 274 274 272 272 271 271 270 270 269 268 267 268 268 268 268 267 267
284 283 286 286 285 286 283 291 289 287 287 287 290 288 286 285 288 287 287 288 287 287 288 288 287 287 288 288 289 289 287 286 285 284 283 283 282 282 281 281 280 280 280 279 278 277 275 273 272 271 271 270 271 271 272 272 273 274 274 273 273 273 273 274 273 273 272 272 273 273 272 271 269 268 268 267 267 266 267 267 266 266 268 268 266 266
285 285 285 286 285 286 286 288 288 287 286 287 288 288 289 288 286 286 286 286 286 285 286 287 288 287 287 287 286 286 285 285 284 283 283 283 282 282 281 280 279 279 278 278 277 276 274 273 272 271 270 270 271 271 272 272 271 271 270 270 270 271 272 272 272 271 271 271 270 269 269 269 270 268 266 266 266 265 265 265 266 265 266 266 266 266
284 288 283 286 286 287 286 283 283 284 285 286 286 285 287 289 287 287 286 286 286 286 286 287 287 287 287 286 286 286 285 285 285 284 283 282 282 281 280 280 279 279 277 277 276 276 275 274 272 272 271 270 271 272 271 270 269 269 269 269 269 270 270 270 270 269 268 268 269 269 269 267 265 265 264 264 263 263 265 265 264 265 265 265 266 266
285 283 284 286 284 284 286 286 283 285 284 286 285 286 286 288 287 285 284 284 285 285 285 286 286 285 286 285 286 287 287 285 284 284 283 283 282 281 280 279 278 277 276 276 275 275 274 273 272 271 270 270 271 271 270 269 268 267 268 268 268 268 268 269 268 268 268 269 268 266 265 263 263 263 263 262 263 263 263 271 272 271 268 266 273 275
284 284 285 284 285 284 286 285 287 288 285 286 286 283 285 286 286 286 286 285 285 286 286 286 285 286 286 286 285 287 286 286 285 284 283 282 282 281 279 278 276 275 274 273 273 272 272 271 270 269 269 269 270 270 268 268 267 266 266 267 267 266 266 266 268 268 267 267 265 265 263 263 263 263 263 262 263 263 264 263 264 271 273 274 274 275
Wind_Speed
4 6 6 8 6 7 7 8 7 10 4 5 8 7 7 4 2 4 3 3 1 2 6 5 6 5 6 7 6 7 6 5 5 6 5 5 5 4 5 5 7 7 6 5 7 10 10 9 9 8 7 7 6 7 9 8 8 9 9 9 10 9 7 8 8 8 8 8 7 4 6 6 5 5 4 5 5 5 5 5 6 7 8 7 8 8
6 6 8 9 8 9 10 8 10 3 3 5 2 7 7 4 1 2 2 2 2 3 4 7 7 10 10 7 6 4 8 8 8 7 7 7 6 6 6 6 7 6 2 5 5 5 7 7 7 7 7 7 9 7 8 9 10 9 8 9 8 9 8 8 8 7 7 6 7 7 6 5 6 6 7 6 5 5 5 4 4 5 6 7 8 8
6 10 8 9 8 5 7 9 8 5 2 2 2 2 4 3 3 1 4 1 1 1 4 3 8 10 10 8 6 7 7 7 10 10 10 8 7 7 7 7 7 5 5 6 6 5 5 6 6 6 6 7 9 9 9 8 8 8 8 8 7 8 9 7 7 7 8 6 6 7 6 8 5 4 6 6 6 7 6 7 6 5 4 6 7 8
6 5 7 6 8 2 1 6 5 1 1 3 1 2 3 2 5 1 1 2 1 2 0 4 3 7 6 5 7 8 10 10 7 11 10 9 10 9 9 8 8 7 8 8 7 8 7 7 6 5 5 6 6 6 6 7 9 8 8 7 8 8 8 8 7 7 6 6 5 5 5 6 5 3 1 1 4 2 1 1 0 1 2 4 5 7
8 2 2 3 7 5 2 2 4 4 3 3 3 2 2 1 0 2 3 2 1 2 2 2 5 7 6 7 8 9 11 8 8 7 7 8 8 6 3 2 5 9 9 8 6 6 7 8 8 9 8 5 6 6 8 8 9 7 9 8 8 7 8 7 7 7 6 6 5 4 3 3 3 3 2 1 1 3 3 2 3 4 3 4 3 3
5 3 1 4 5 8 5 4 5 4 5 2 4 4 2 2 7 6 5 5 1 3 3 3 2 5 5 12 14 10 6 11 9 8 8 8 6 5 6 6 3 2 1 5 6 7 8 9 6 5 6 7 7 7 6 6 6 5 6 7 6 6 6 7 7 7 6 7 7 7 7 5 3 3 3 5 4 2 3 4 3 3 3 4 4 4
3 1 1 5 4 4 5 4 4 5 4 3 3 5 4 5 6 6 5 1 1 1 1 1 7 5 3 3 6 6 6 9 4 7 8 7 7 6 7 7 6 5 5 3 1 1 2 5 7 7 8 8 8 6 5 5 5 5 5 5 6 6 5 5 6 7 6 6 6 6 6 6 6 6 3 3 4 3 3 3 4 5 5 5 5 4
2 2 2 2 4 4 3 4 2 7 4 3 1 3 4 5 5 4 4 3 0 1 1 0 1 2 5 9 5 3 6 5 5 6 7 7 6 7 7 6 5 6 5 5 5 5 5 4 6 7 6 6 7 5 5 5 5 5 5 6 6 5 6 5 5 6 6 7 6 6 6 6 6 6 4 5 3 3 1 1 1 1 1 0 1 2
3 5 2 5 4 3 6 2 2 6 3 2 1 4 1 3 3 4 3 3 0 2 3 1 1 1 4 4 2 0 0 3 6 8 9 8 7 6 6 5 5 4 3 4 4 4 5 5 5 4 5 4 5 5 6 6 5 5 5 6 5 5 6 5 6 7 6 6 6 7 6 5 4 5 3 3 4 5 4 4 0 1 2 2 2 2
3 3 5 6 6 6 2 1 2 5 6 2 1 4 4 3 2 2 3 2 0 1 5 3 4 3 7 3 3 1 3 5 6 9 10 9 8 6 5 4 3 2 2 1 1 3 3 5 3 3 5 5 4 4 4 4 4 5 5 6 6 6 5 6 6 7 6 5 6 6 5 6 4 3 2 2 3 4 4 3 2 2 2 2 2 2
0 2 3 2 4 2 3 2 1 2 3 4 3 6 3 2 1 1 0 1 1 3 5 3 7 4 6 4 7 6 6 5 6 2 2 4 5 4 3 4 2 3 4 4 4 2 3 3 4 4 5 4 4 3 5 5 5 5 5 6 6 6 6 6 6 6 6 5 5 5 5 6 5 5 4 2 1 1 2 3 3 3 2 2 3 1
0 1 1 1 2 2 3 4 3 0 3 4 2 3 4 4 2 1 1 1 2 3 0 2 0 2 6 3 2 2 1 0 1 1 5 4 5 4 4 3 3 2 3 4 4 4 4 4 4 4 5 5 5 4 4 4 5 5 5 6 6 5 6 6 6 6 6 5 4 5 5 5 4 5 4 4 3 2 2 2 3 2 3 4 1 2
3 2 2 2 3 2 3 6 3 3 0 0 3 6 6 2 2 1 1 3 4 4 1 1 2 2 9 8 5 2 2 1 2 0 4 6 5 5 4 4 3 2 2 4 4 4 4 5 5 5 5 5 5 5 5 5 5 5 5 6 8 6 6 6 5 6 6 5 4 4 5 4 3 2 4 5 4 5 6 6 5 5 4 2 1 1
0 1 1 1 2 3 3 9 3 1 3 3 6 6 5 2 2 2 2 2 1 1 3 0 1 2 3 5 11 15 15 5 5 4 5 6 6 5 4 4 4 4 4 4 5 5 5 5 5 5 5 5 5 5 6 6 5 5 6 6 7 6 5 5 5 5 6 4 3 3 3 3 4 3 1 1 1 1 1 2 5 5 4 4 4 4
5 2 6 7 1 5 2 3 8 6 8 7 4 6 6 4 3 3 4 5 6 3 0 3 1 6 3 5 1 5 1 5 3 4 4 5 5 4 4 3 4 3 2 3 4 4 5 5 5 5 5 5 5 6 6 5 5 6 7 7 8 7 5 5 5 5 6 4 4 3 3 2 3 3 3 2 1 0 1 3 4 3 4 4 4 5
12 3 2 3 2 1 8 1 1 5 2 2 2 2 2 6 0 4 1 1 2 1 1 1 5 3 5 2 2 3 1 3 4 4 4 4 4 4 3 4 4 4 4 4 5 5 5 5 5 5 5 5 5 5 5 5 5 5 7 7 6 7 6 6 6 6 7 6 6 5 5 3 4 4 3 3 4 5 4 4 4 4 4 5 4 5
2 4 1 3 1 2 1 2 1 1 6 5 4 5 4 0 7 4 1 0 1 1 5 4 3 7 4 8 8 4 4 3 2 4 3 5 5 5 5 4 4 4 4 4 4 4 5 5 5 5 5 5 5 5 5 5 5 5 7 8 7 6 5 6 5 5 6 6 6 5 5 4 4 4 3 4 5 4 4 4 4 4 3 3 4 4
9 2 2 2 2 0 0 1 1 3 1 6 1 6 1 1 3 3 4 1 0 3 3 6 7 4 1 7 2 3 4 4 5 5 5 4 5 5 5 5 5 5 4 5 5 4 5 5 5 5 5 5 5 5 5 5 5 5 6 7 8 7 7 5 6 6 6 7 6 5 5 5 5 4 4 5 4 4 5 4 3 4 5 4 3 3
7 4 1 2 1 3 1 0 1 1 3 3 6 1 4 1 2 1 1 3 1 3 2 2 5 4 7 5 0 3 4 6 7 6 5 5 5 5 5 5 5 5 5 5 5 5 5 5 5 5 5 5 6 5 5 5 5 6 6 6 6 7 6 6 5 5 6 5 5 5 5 5 5 4 5 4 4 4 5 5 5 4 4 5 5 5
2 4 1 2 2 1 1 2 8 3 2 0 0 2 1 1 2 4 4 1 2 3 1 4 5 4 5 4 4 5 8 7 7 8 9 9 8 7 6 6 7 6 5 5 5 4 5 5 5 5 5 5 5 5 5 5 5 6 6 7 6 6 6 6 6 6 7 5 6 6 6 5 5 5 5 4 5 6 5 4 5 5 5 4 4 4
1 1 3 1 3 1 1 4 8 10 7 1 2 0 0 0 1 2 2 4 3 2 3 2 4 3 5 7 9 9 8 10 11 11 9 7 8 6 6 7 7 6 6 5 5 5 5 5 5 6 5 5 5 5 5 5 5 5 5 6 5 7 6 7 6 6 5 6 6 6 6 6 5 6 5 6 6 6 5 6 5 4 3 3 4 4
2 1 6 3 2 3 2 2 2 1 6 7 10 8 11 8 3 3 6 2 2 3 3 4 7 2 2 2 2 3 2 5 7 9 9 8 8 8 7 7 8 7 6 6 5 5 6 5 6 5 5 5 5 6 6 5 6 6 6 5 6 6 6 6 6 6 6 6 7 6 6 5 5 5 6 7 6 6 5 4 4 3 4 4 4 4
4 3 8 4 3 4 1 1 0 1 2 1 1 4 5 3 3 4 6 5 1 4 2 1 1 7 4 1 2 3 2 3 2 0 7 7 9 9 9 9 8 9 9 7 6 6 5 5 5 5 6 5 6 6 6 6 6 6 6 6 6 7 6 5 6 5 6 6 7 6 5 6 6 6 6 7 6 6 5 4 4 3 5 5 5 4
6 4 5 2 3 1 1 2 1 0 1 0 3 2 4 9 10 9 6 3 4 1 2 1 4 4 2 1 1 2 1 1 2 1 0 5 5 6 8 8 8 6 5 6 6 5 6 5 5 5 6 6 5 5 6 6 6 6 6 6 6 7 6 6 6 6 6 7 7 6 7 7 6 7 6 7 5 6 5 4 5 5 7 5 5 5
4 2 8 4 2 1 3 1 2 1 1 4 4 7 4 1 2 1 2 1 0 5 6 6 9 6 5 2 0 1 2 2 1 1 0 3 4 5 7 8 7 8 8 8 7 7 6 6 6 5 5 5 5 5 6 6 6 6 6 6 6 5 5 5 5 6 6 7 8 7 7 6 5 6 6 6 5 6 6 6 6 6 6 5 5 4
5 5 10 8 10 9 8 9 13 11 8 0 2 1 3 3 3 5 7 3 6 4 7 3 4 7 3 1 0 1 1 3 3 3 3 1 5 7 6 7 8 9 10 10 8 7 7 6 5 5 5 5 5 6 6 6 6 6 6 6 5 6 5 6 6 7 7 7 8 7 7 6 5 5 5 5 6 7 7 7 6 5 4 3 3 3
3 2 7 10 13 14 14 8 4 11 5 7 7 9 7 8 8 4 0 3 9 4 7 5 7 10 11 5 1 3 4 6 5 4 5 4 3 4 5 6 7 8 9 10 9 8 6 6 7 6 6 5 6 5 5 6 7 6 7 7 5 5 6 6 7 7 7 7 7 7 6 6 5 5 5 6 6 6 6 5 4 4 3 3 2 2
3 5 7 9 12 12 6 4 6 11 5 6 8 10 10 9 9 10 9 10 7 6 11 5 7 10 16 12 5 5 6 5 4 5 4 4 5 6 6 5 6 5 5 5 7 9 10 8 7 7 7 7 6 6 6 6 6 7 7 7 5 5 6 6 7 7 7 7 7 7 6 6 5 5 6 5 5 5 5 4 4 4 4 3 4 4
5 7 5 6 10 9 5 5 6 7 9 10 14 13 14 13 11 12 13 14 10 9 14 13 13 14 17 13 6 8 7 7 8 9 9 7 5 5 7 8 8 7 6 7 8 7 9 10 9 8 8 7 7 8 7 7 7 7 7 6 6 6 6 6 7 7 7 6 7 6 5 5 5 5 5 5 4 4 4 4 4 3 3 3 4 4
2 4 4 6 7 7 5 5 5 9 6 7 10 13 13 14 15 16 17 18 18 14 14 17 15 17 15 9 6 7 7 9 6 4 5 7 8 9 8 8 8 9 9 10 9 9 8 7 8 8 9 8 9 9 8 8 7 7 8 7 6 7 5 7 6 7 7 7 6 6 5 6 5 5 4 4 4 4 4 4 4 4 4 4 4 4
5 4 10 4 4 5 6 6 4 6 6 8 8 10 11 10 12 15 15 17 17 17 17 17 14 15 11 6 6 2 3 2 4 6 9 10 8 8 9 10 10 11 11 9 8 9 8 8 8 8 9 9 9 9 9 8 8 8 7 7 6 7 6 6 7 7 7 7 5 5 5 5 4 4 5 4 4 4 4 4 3 4 4 4 4 5
5 3 4 5 5 5 6 8 8 5 5 5 4 6 8 10 12 12 14 13 11 11 12 11 13 15 17 10 6 3 4 7 8 8 6 5 8 9 10 11 11 11 11 12 10 9 10 11 11 11 11 10 9 9 9 10 8 8 8 7 7 7 6 7 7 8 7 6 5 5 5 4 4 5 5 5 4 3 3 3 4 5 5 4 5 5
6 4 5 5 7 8 5 8 6 2 1 4 10 14 16 14 12 11 12 13 14 14 13 13 18 18 12 7 8 8 6 7 9 7 4 4 8 12 13 14 14 13 13 13 13 13 12 12 11 11 9 8 9 10 8 9 10 9 8 8 7 7 7 7 7 7 7 5 6 6 5 5 5 5 4 4 4 3 4 4 5 6 5 5 4 4
5 5 4 5 5 6 2 5 4 4 11 15 17 17 12 14 13 11 8 11 12 12 11 15 17 15 9 8 10 9 6 7 9 9 10 12 11 10 9 10 11 12 10 9 9 10 9 8 8 8 8 8 8 8 8 8 10 9 7 8 7 8 7 8 7 7 7 6 6 6 6 6 5 4 4 3 3 4 4 5 5 4 4 4 4 4
8 6 4 4 3 4 4 7 3 11 15 18 6 2 11 17 11 11 14 17 15 14 14 15 14 13 8 5 7 9 9 9 8 9 9 7 8 11 13 12 11 11 12 11 11 11 12 12 10 10 10 10 10 9 10 9 8 9 7 7 8 6 8 7 7 7 6 7 6 6 6 6 5 4 3 3 4 4 4 4 4 4 4 4 4 4
8 8 3 2 3 3 3 5 6 13 8 5 2 9 12 9 12 11 15 16 15 12 10 13 15 16 14 13 11 8 7 7 7 8 9 8 8 9 9 11 12 11 12 13 16 15 16 16 16 15 12 9 10 9 8 10 8 9 8 5 7 7 7 7 7 7 6 7 7 7 6 6 4 3 3 3 3 4 4 4 3 3 3 3 3 3
10 6 6 4 5 7 5 6 8 6 9 4 6 13 12 11 6 9 12 15 13 11 12 14 18 20 18 15 10 2 0 0 3 8 6 7 7 7 12 13 13 14 14 12 12 11 9 9 11 11 11 10 9 10 9 9 9 9 9 8 7 8 7 7 8 7 7 7 6 6 5 4 3 2 2 2 2 3 3 3 3 3 2 3 3 4
3 9 5 7 3 7 5 3 1 3 10 19 17 3 5 8 9 6 6 14 12 11 14 15 16 16 15 10 6 3 2 4 8 10 8 5 6 7 5 5 6 7 8 10 9 10 11 10 9 9 11 11 9 8 8 8 9 9 9 8 7 8 8 8 8 7 7 6 5 4 4 3 1 0 1 1 1 2 2 2 2 1 2 3 4 4
4 3 3 10 3 6 6 7 6 9 15 11 6 8 7 8 9 6 4 14 17 15 10 9 12 14 14 12 5 6 4 6 10 12 8 8 9 6 6 1 4 7 10 14 17 16 14 13 12 11 10 11 12 8 8 9 10 10 10 8 8 8 9 7 7 6 5 5 4 3 3 3 1 0 0 1 1 1 2 3 2 2 3 3 3 4
3 1 4 5 6 5 6 7 9 5 11 5 6 4 11 10 10 8 7 14 19 3 6 8 13 14 10 6 8 9 10 10 12 14 2 6 5 3 5 7 8 9 9 9 8 12 14 14 14 12 12 12 10 9 9 9 9 9 10 8 8 8 7 6 5 5 4 4 4 3 2 2 1 1 0 1 1 2 2 2 2 3 3 4 3 3
3 1 4 11 10 9 7 5 3 7 9 4 7 5 7 11 11 10 17 14 4 12 12 13 11 11 10 7 10 9 13 12 6 1 3 7 9 5 5 4 5 7 11 11 12 12 12 10 11 12 10 9 9 8 8 9 11 10 9 9 9 7 6 5 4 4 4 4 5 4 2 2 1 1 1 1 1 1 1 1 2 3 3 3 3 3
3 3 0 2 7 10 9 8 8 7 9 6 2 9 10 9 10 19 6 2 7 6 9 11 12 11 10 10 10 12 6 4 6 4 5 5 7 6 7 8 10 9 7 8 12 12 12 11 11 11 9 6 7 7 8 9 11 10 10 9 8 6 5 5 4 3 4 5 4 3 1 1 1 2 2 2 0 1 1 1 1 2 3 3 3 5
10 8 9 11 6 3 4 7 6 14 7 13 10 1 5 11 6 4 3 1 1 3 2 3 3 6 5 6 8 7 6 4 6 6 5 6 8 9 10 10 12 13 14 13 10 7 12 12 11 10 9 6 5 5 6 11 12 10 8 9 7 6 5 4 4 4 4 4 3 3 1 2 2 3 1 0 1 0 1 1 1 2 1 4 6 7
8 7 5 8 8 9 10 10 11 6 0 8 15 9 4 7 2 3 7 5 2 3 3 4 1 1 1 5 6 5 5 7 4 7 6 5 6 7 7 7 8 9 9 6 8 10 10 12 10 10 7 6 5 5 6 10 12 9 10 8 6 5 4 4 3 4 4 4 3 2 3 2 2 2 0 1 1 1 0 1 2 4 6 6 6 7
10 12 9 10 6 8 10 13 11 5 8 4 2 1 7 8 5 5 4 5 6 4 3 2 3 1 1 4 5 8 4 4 7 8 9 8 8 8 9 9 10 11 11 12 11 10 9 13 14 11 9 6 6 6 6 7 12 11 10 7 6 5 5 4 4 4 4 3 3 4 3 2 2 1 1 1 0 1 2 4 5 7 5 5 6 5
3 7 6 5 6 7 7 5 4 3 1 1 1 2 1 3 3 3 5 4 0 2 5 3 4 5 3 5 7 2 6 8 9 6 6 8 8 6 7 8 7 7 8 10 10 10 10 11 11 12 12 7 5 6 6 6 8 12 8 7 5 5 5 4 5 5 5 4 4 4 3 1 1 2 2 2 3 4 4 4 5 5 5 6 4 4
3 1 5 7 1 6 10 14 10 4 1 4 3 0 1 2 1 1 3 2 3 3 2 1 3 5 5 5 7 7 6 7 8 6 7 8 9 10 11 11 10 10 12 12 11 12 12 12 12 11 11 11 5 6 6 7 6 6 7 7 6 5 4 4 5 5 5 5 4 3 2 1 2 2 3 4 4 4 4 4 3 3 3 5 4 4
4 3 5 7 6 13 13 8 5 2 3 1 3 2 2 1 1 1 2 3 4 2 1 1 1 1 2 3 3 6 6 7 10 9 9 9 10 10 11 11 11 9 6 7 9 10 10 10 12 12 11 11 8 6 7 7 8 7 7 5 5 3 4 6 6 5 5 4 3 1 3 3 5 5 4 4 5 5 5 5 3 2 3 3 4 5
2 8 7 7 9 7 3 2 1 5 2 1 1 2 3 4 4 2 2 2 2 2 1 1 1 0 2 3 5 7 7 7 8 11 11 9 9 10 11 11 11 11 12 12 10 11 12 11 12 12 12 9 8 8 7 8 7 7 6 5 4 4 6 6 5 5 3 3 3 4 4 3 3 4 4 4 4 4 3 3 3 3 3 4 3 3
3 7 1 5 7 7 11 7 5 2 3 2 5 5 3 0 2 3 3 2 2 3 3 2 0 1 0 3 6 8 9 9 8 9 11 10 11 11 11 11 11 12 10 8 8 9 8 8 11 13 11 9 8 7 8 9 7 5 5 4 4 4 5 5 5 4 4 4 4 4 3 3 3 3 3 3 4 3 2 4 6 5 3 4 5 7
4 2 4 7 9 7 0 4 3 4 3 0 1 3 2 1 4 3 4 3 2 2 3 4 2 0 1 2 4 7 7 10 11 9 9 9 9 9 11 13 14 12 12 11 11 10 10 10 9 10 11 10 8 7 8 8 7 6 5 4 3 3 3 3 5 5 4 4 3 3 1 1 1 2 1 2 2 3 4 3 3 6 8 7 5 6
Wind_Direction
151 180 188 206 208 195 215 226 231 239 288 220 177 182 224 173 215 69 104 146 185 114 222 230 246 253 248 239 234 187 190 199 193 200 211 220 226 222 212 199 204 206 212 204 176 182 177 170 173 173 164 172 174 173 176 180 179 179 180 163 174 181 174 170 173 172 173 178 181 179 187 194 190 197 194 198 200 202 203 201 197 191 185 182 191 203
164 205 212 204 208 194 198 223 241 271 307 322 165 176 220 204 170 13 131 199 235 145 234 217 244 251 250 252 250 217 173 204 195 202 209 212 211 211 208 218 210 212 134 114 102 113 136 151 157 161 162 165 173 190 178 185 187 183 180 177 172 171 182 181 178 172 175 180 183 178 189 183 188 191 194 203 202 203 214 219 195 182 179 183 191 199
199 211 203 206 220 234 199 205 240 244 285 311 317 204 197 227 111 150 71 103 173 81 271 212 216 241 245 243 241 250 237 205 197 198 210 209 215 211 207 210 210 191 176 180 166 155 150 151 153 156 169 178 182 184 185 186 181 183 182 181 174 172 178 186 177 169 179 176 176 173 181 178 182 183 178 183 189 194 202 212 213 198 183 182 188 193
200 231 240 193 206 164 166 197 193 159 322 299 267 332 210 176 133 238 295 134 200 187 305 33 338 285 286 276 257 236 229 240 209 201 209 202 213 213 207 199 197 200 183 187 178 176 176 171 170 166 176 189 177 175 186 183 183 184 185 180 176 175 175 181 184 176 174 169 168 163 158 172 153 176 137 155 177 176 157 253 143 167 187 206 206 186
181 189 187 273 180 188 187 164 174 190 228 229 264 282 293 188 134 114 166 166 87 326 106 319 318 286 236 247 249 238 229 227 226 221 212 213 211 205 186 170 193 191 184 184 182 177 166 172 181 185 189 179 187 186 186 186 185 185 185 183 177 172 173 174 176 173 161 147 143 138 100 73 87 69 75 48 293 189 200 232 213 217 213 237 238 200
195 238 268 188 182 183 168 183 195 162 228 249 224 211 326 324 111 97 125 127 114 260 219 120 348 288 218 214 226 226 205 218 215 196 208 206 211 199 212 217 215 240 189 165 172 181 179 181 175 173 172 180 194 199 197 184 181 164 172 170 167 164 163 168 172 169 154 157 154 152 158 154 167 182 167 196 205 209 189 202 207 225 218 218 232 240
175 13 181 161 168 182 185 198 206 166 200 181 254 201 165 65 111 126 160 119 162 188 273 138 174 270 335 316 236 219 194 218 204 198 216 209 213 211 218 220 218 212 227 226 232 257 162 170 168 177 180 186 188 201 177 161 167 156 162 162 162 162 163 159 160 164 149 150 157 165 170 171 175 180 209 179 183 180 211 194 201 207 216 216 209 218
101 94 64 134 135 147 159 210 216 175 169 235 233 339 167 119 124 156 153 163 205 107 35 327 154 247 289 278 317 160 166 203 211 236 240 232 217 212 214 215 205 201 191 192 208 214 216 186 179 179 180 177 188 177 160 160 162 157 161 156 158 154 155 158 152 156 157 156 164 166 171 168 170 169 182 180 185 167 168 266 260 186 139 87 155 186
140 151 165 144 146 140 196 186 180 164 185 206 279 356 97 175 160 156 148 164 222 72 294 199 257 327 246 261 232 39 228 244 227 220 228 223 210 188 184 178 166 155 151 159 185 208 207 207 202 189 175 168 143 154 162 163 166 159 153 148 149 150 148 160 154 154 162 160 168 166 161 158 159 149 171 156 159 174 190 200 324 44 23 16 27 56
356 163 177 143 142 184 128 50 346 171 190 249 208 56 56 48 76 138 168 156 351 119 251 217 202 213 280 251 264 266 217 239 230 226 218 202 185 167 159 136 134 130 130 157 220 227 207 190 168 129 118 104 124 138 135 140 144 151 150 151 152 158 148 157 154 152 161 163 158 159 157 147 152 137 155 100 64 55 44 61 39 35 18 356 353 11
317 137 181 79 175 117 124 36 89 41 104 125 149 86 51 54 59 6 60 136 98 241 242 206 200 179 298 242 201 172 220 205 239 270 60 98 105 108 116 140 165 167 167 179 207 212 109 94 110 121 123 123 106 123 134 149 159 156 148 152 150 158 141 149 152 148 162 157 146 146 145 146 153 166 148 127 94 70 38 30 5 6 352 334 286 194
92 34 43 299 329 178 126 83 11 150 115 127 129 129 90 354 33 53 326 50 158 268 211 312 196 163 191 290 224 208 280 177 106 198 177 155 158 150 155 154 157 162 167 176 172 157 120 121 146 138 130 139 154 148 143 150 151 154 152 148 142 137 136 143 147 142 148 139 137 133 141 148 152 148 148 147 159 157 156 178 237 265 275 255 223 73
57 114 116 47 265 198 163 96 360 23 338 48 133 125 124 196 86 303 138 218 211 213 241 31 4 329 246 234 282 248 215 198 179 284 187 165 148 143 148 153 148 152 158 179 169 156 162 164 173 158 153 148 160 159 153 153 151 147 144 140 130 128 130 135 139 136 135 132 133 118 127 128 145 154 149 164 168 174 180 186 191 187 205 252 232 224
301 124 199 115 49 248 200 136 145 124 247 194 167 152 136 156 150 202 212 191 256 310 287 282 254 267 264 282 233 253 255 223 179 119 115 138 146 147 150 146 147 181 190 171 160 166 168 168 165 148 151 154 148 145 147 147 145 141 130 126 125 135 128 131 128 125 119 115 106 88 104 124 148 153 143 133 136 188 176 167 168 179 184 202 213 209
155 296 231 155 221 165 199 190 179 161 171 203 185 155 170 162 154 192 173 188 203 197 266 280 81 232 134 249 261 227 181 65 78 96 106 106 119 124 135 141 154 155 127 133 137 139 141 143 140 140 133 131 132 132 132 132 137 135 140 137 138 137 133 134 133 118 125 133 130 133 121 142 139 140 140 152 164 109 65 45 62 56 56 46 31 50
197 167 321 336 270 178 179 217 94 116 117 222 188 87 163 221 138 156 197 141 136 117 98 309 203 208 185 216 241 166 136 94 119 121 121 129 142 141 153 169 174 161 158 132 115 102 97 103 101 103 106 113 119 121 120 126 129 126 130 128 130 134 139 141 140 145 149 152 142 144 143 129 105 97 93 91 71 65 67 56 59 47 45 44 34 31
103 228 332 316 50 49 2 337 345 169 170 220 129 203 191 87 95 107 22 214 77 40 262 174 307 292 279 299 247 170 149 200 152 186 180 173 159 158 171 178 160 147 142 131 117 115 109 92 88 96 102 103 100 96 96 94 102 109 118 124 124 123 119 120 117 115 113 110 105 106 104 96 92 88 90 85 82 78 66 65 53 63 59 50 42 41
153 147 324 40 188 344 107 358 350 43 272 85 137 225 134 205 119 137 215 71 156 180 256 146 209 273 210 280 329 125 181 215 201 206 205 179 163 172 181 171 152 148 145 122 112 103 96 94 89 81 74 83 91 95 85 74 69 92 107 118 119 113 113 108 105 104 110 113 111 106 96 94 103 102 86 85 87 72 74 57 54 52 49 49 44 45
112 78 9 342 351 313 269 197 56 22 45 116 178 314 145 227 276 271 192 235 169 223 251 233 216 246 180 233 81 229 204 222 214 211 193 198 185 193 170 167 143 130 112 114 114 108 106 104 94 86 86 77 79 85 91 82 74 71 78 89 100 109 109 110 105 101 94 97 107 109 111 109 96 91 90 89 91 85 79 64 60 59 51 40 33 42
140 137 299 337 360 192 54 150 192 202 323 187 305 50 18 99 216 143 190 235 120 245 222 290 181 247 208 217 188 223 211 208 201 198 211 199 190 185 178 163 151 143 137 134 132 125 117 108 106 106 102 96 93 93 89 89 81 79 85 90 94 91 92 93 93 94 98 96 97 95 86 81 86 85 87 84 85 81 77 71 61 52 47 33 37 37
134 79 150 275 311 140 170 202 206 174 155 213 47 100 199 127 232 111 310 184 166 200 207 257 289 278 254 210 212 215 198 200 188 202 206 199 194 187 174 160 156 152 150 153 145 133 117 104 93 88 88 89 88 86 86 86 90 91 88 90 90 98 93 88 89 93 94 93 90 91 87 84 84 88 86 79 77 79 75 66 61 56 41 46 57 49
91 181 148 137 120 226 236 16 25 109 193 189 175 187 180 158 145 165 268 203 201 172 230 220 244 272 275 8 220 218 204 182 197 186 199 199 186 180 167 161 160 158 165 156 142 130 121 110 102 99 96 92 90 89 88 82 80 75 76 78 81 83 80 88 84 85 88 85 91 92 93 91 88 87 84 81 76 78 76 76 69 58 48 66 47 52
147 110 104 163 203 174 122 265 344 130 97 111 178 225 177 188 164 149 206 242 174 239 107 161 346 271 250 272 357 39 40 54 26 198 199 193 184 175 168 164 169 165 160 152 135 127 123 122 122 120 115 105 100 98 91 85 84 82 76 74 73 81 77 79 87 87 89 92 93 91 88 86 82 80 79 80 75 75 71 73 71 58 65 49 36 28
89 100 89 65 36 7 279 198 193 165 126 253 273 252 167 194 192 198 197 186 166 179 210 223 236 249 276 16 7 341 348 5 352 357 337 180 165 161 158 163 160 149 133 125 121 119 120 122 114 107 105 103 99 98 97 95 89 83 79 80 80 79 78 77 82 87 89 91 86 81 78 75 76 81 84 83 80 78 67 62 55 45 48 37 37 35
143 229 115 118 55 10 344 350 334 311 189 205 196 206 204 234 179 70 79 24 281 213 176 168 237 259 266 333 333 351 313 303 276 254 285 135 157 161 165 165 161 149 139 138 137 134 124 122 128 128 119 114 110 102 99 96 94 89 86 81 83 81 79 82 84 86 82 84 84 75 76 75 74 83 83 86 79 70 60 49 45 42 45 37 32 10
163 175 152 160 176 181 200 201 209 202 202 7 10 36 177 183 132 138 229 200 228 246 185 196 259 255 257 360 268 269 289 287 248 211 242 227 172 169 169 169 162 158 162 154 144 137 145 145 129 121 122 117 110 110 105 100 95 91 86 84 85 90 85 79 84 89 90 86 88 82 76 72 70 71 76 76 70 67 63 56 49 45 33 54 31 13
161 195 193 189 201 211 215 213 75 100 109 184 200 197 206 194 200 200 134 200 216 228 216 223 224 267 267 255 263 259 227 229 229 198 198 220 189 166 169 172 173 173 167 161 152 146 132 133 144 139 126 120 115 111 109 110 107 101 98 87 80 82 88 88 89 90 92 90 89 87 78 74 68 64 63 61 64 65 65 64 58 54 41 26 67 51
102 197 210 203 223 226 203 150 158 139 161 192 188 215 210 200 195 196 193 220 197 224 256 235 231 240 255 251 204 232 242 249 245 208 208 213 196 174 171 163 156 150 147 139 149 158 160 155 145 139 133 122 116 108 102 101 106 111 108 104 91 81 83 85 90 91 91 92 91 87 82 75 69 62 58 56 54 57 65 64 53 41 30 40 36 34
142 193 220 188 233 231 208 182 165 167 190 194 201 203 208 205 199 198 217 226 215 208 231 234 225 235 249 250 219 216 205 213 219 215 203 183 161 154 158 167 171 172 165 164 171 165 163 162 155 144 137 134 127 121 117 113 109 105 98 93 91 85 83 91 94 92 93 92 86 82 80 75 68 62 63 61 59 55 58 56 50 42 43 44 36 23
109 227 201 191 225 232 215 200 180 197 210 215 213 217 214 205 204 201 213 219 220 223 228 237 240 237 241 252 231 229 202 208 211 167 133 157 185 175 169 170 173 178 182 183 179 174 165 157 149 145 141 139 138 135 132 127 123 119 118 111 99 93 87 95 96 100 93 84 82 82 80 81 82 80 77 68 61 53 47 50 42 49 44 32 30 23
140 231 158 158 208 245 232 220 199 193 188 219 223 221 216 209 203 208 216 226 227 236 236 245 253 262 259 242 246 275 208 115 96 145 176 191 170 168 173 182 187 189 192 187 179 174 163 153 149 145 146 148 147 146 137 131 127 122 113 111 107 101 103 102 101 92 89 85 81 80 79 82 88 92 78 66 56 39 36 33 41 50 39 27 24 19
147 252 139 129 189 248 219 207 216 204 204 217 238 238 224 206 208 207 214 217 213 221 236 251 258 254 253 244 254 229 150 157 181 194 192 180 173 170 184 191 194 197 193 191 182 170 164 162 160 161 160 156 150 142 138 135 132 125 122 121 114 112 106 101 99 99 92 90 84 75 72 69 72 71 66 62 46 33 21 31 38 40 28 21 18 6
174 152 155 147 196 235 220 188 193 118 45 293 242 221 214 217 213 211 217 212 211 203 220 221 235 240 244 242 243 240 179 196 200 195 180 187 188 187 192 195 199 200 195 186 183 180 173 168 166 160 154 150 146 141 142 137 130 131 133 125 127 115 109 107 105 102 97 93 87 78 67 58 56 56 53 49 46 32 31 37 37 28 18 12 360 6
158 155 166 153 187 237 231 150 121 104 218 229 226 216 201 219 216 215 221 222 222 200 218 218 235 244 234 231 238 251 204 215 206 214 192 185 192 201 209 207 205 202 195 190 182 170 159 150 152 153 149 141 133 130 130 130 126 128 128 125 121 117 115 111 104 101 98 90 81 75 66 60 53 46 35 34 34 34 35 39 31 15 357 0 5 8
168 158 191 159 176 223 100 112 123 216 232 234 242 139 201 221 216 217 229 224 222 219 227 242 252 260 254 226 222 233 226 217 214 208 222 216 182 185 197 204 204 196 188 177 165 166 168 162 148 141 141 142 138 132 124 119 123 123 119 123 117 113 110 106 106 97 94 84 74 69 63 58 49 36 13 16 25 33 35 33 19 7 353 5 351 333
169 167 162 195 144 52 90 156 195 227 250 287 230 217 220 211 211 220 242 242 237 226 216 239 248 253 254 249 243 231 235 229 224 226 221 217 187 182 190 203 206 188 182 181 177 176 167 166 162 156 149 140 133 133 131 133 133 124 124 119 114 112 105 107 99 93 86 77 67 63 59 57 45 25 7 11 19 42 34 25 0 344 330 350 319 300
169 158 154 205 169 202 168 194 226 350 315 269 234 225 198 206 188 192 235 250 232 224 219 228 235 241 244 246 254 272 62 103 242 258 239 210 206 194 190 204 195 192 190 185 173 161 146 137 138 139 134 135 136 136 138 136 129 124 121 115 111 108 104 98 91 85 82 76 68 67 65 63 43 15 360 7 31 40 29 12 341 330 341 342 301 298
146 172 191 169 220 178 192 204 155 232 251 247 231 55 147 201 207 193 209 269 255 227 221 227 240 250 255 257 247 202 117 196 255 256 244 225 211 202 229 220 188 174 152 131 118 120 125 124 118 126 134 133 131 135 136 134 130 126 120 115 112 105 96 88 87 86 86 88 87 83 84 83 62 32 332 8 29 25 354 328 316 315 340 323 308 311
28 78 158 180 196 154 205 216 208 217 237 255 105 188 178 167 176 121 171 248 249 225 218 216 235 242 242 242 218 128 146 221 244 250 228 196 210 201 165 95 138 139 141 146 145 142 140 139 137 135 129 130 133 141 136 132 130 124 118 115 108 98 97 93 92 95 103 108 108 102 107 110 79 18 337 350 350 350 332 312 302 310 325 307 298 291
134 111 102 174 217 211 190 211 232 218 256 243 178 174 168 158 117 111 205 246 249 147 178 214 222 233 237 217 147 172 181 230 240 248 229 181 162 120 138 139 127 125 124 123 123 132 133 131 128 132 139 142 142 140 136 132 124 118 115 111 105 101 102 103 104 108 111 111 110 103 79 99 87 323 13 299 323 318 303 291 332 319 318 308 293 295
145 210 191 203 203 214 202 239 256 263 259 204 176 179 160 139 126 164 215 239 89 140 191 210 219 223 223 192 167 199 214 222 242 63 85 105 102 83 73 86 110 125 132 131 129 127 127 131 134 137 137 136 136 135 133 129 120 114 112 112 107 106 110 111 108 110 116 112 102 87 69 43 100 274 286 264 255 283 300 309 305 309 319 305 299 314
204 158 344 189 219 211 216 224 239 282 247 164 329 161 150 109 194 209 222 141 140 172 197 194 210 214 216 189 190 216 217 104 132 96 93 110 122 125 116 114 105 87 79 104 125 130 127 124 119 113 106 107 117 124 128 125 117 117 116 112 113 118 115 116 122 121 110 103 94 96 110 143 287 262 235 266 35 320 285 284 315 312 296 299 339 1
178 163 190 196 198 224 186 216 228 245 262 129 123 165 264 190 225 177 178 258 101 189 191 245 194 234 187 216 209 198 118 128 127 135 123 119 130 135 137 135 133 135 137 135 130 132 130 126 123 116 113 101 93 103 124 120 118 118 118 118 125 120 119 123 123 116 112 104 112 141 175 206 238 256 234 117 320 321 315 311 311 300 337 12 12 9
154 184 190 216 180 194 199 207 218 227 153 172 143 192 186 224 206 171 133 200 239 210 197 183 246 190 185 187 188 150 143 122 110 115 121 109 115 122 116 120 120 123 123 113 122 132 128 119 115 111 99 92 83 84 109 124 122 123 123 126 123 123 121 113 113 115 118 128 139 185 195 216 235 239 130 359 323 330 285 313 12 16 17 21 11 359
174 206 173 206 169 192 202 218 223 200 180 212 153 210 202 178 137 187 142 154 173 247 203 144 194 194 135 141 141 149 139 185 159 164 142 163 142 144 142 144 146 142 140 137 137 131 128 132 130 120 106 95 90 83 94 115 126 126 125 131 129 136 125 127 130 126 130 148 181 194 193 222 229 168 41 330 348 13 1 16 18 17 4 16 4 359
195 199 163 189 228 227 258 241 222 215 178 148 95 145 109 130 64 105 128 128 174 179 169 168 191 165 163 139 125 177 171 160 146 149 132 135 141 129 127 125 126 127 126 128 129 133 128 121 120 122 118 104 94 96 93 101 121 125 132 126 126 121 122 139 142 141 158 183 191 198 174 198 123 66 2 16 27 31 21 15 6 9 353 6 353 350
233 146 168 204 170 169 235 236 229 231 190 213 151 20 61 76 133 109 86 95 140 127 131 118 168 177 177 166 164 169 158 152 139 139 140 141 146 153 150 153 152 153 153 147 144 132 131 134 131 132 129 124 119 110 106 106 96 98 114 121 118 119 131 145 149 157 167 188 190 174 154 130 93 46 24 28 26 18 8 5 8 6 352 342 341 341
263 173 182 194 179 198 236 224 246 213 149 166 146 147 231 229 186 144 126 126 119 92 108 134 115 112 137 161 156 133 149 153 149 158 161 164 163 162 161 155 149 137 126 123 130 134 132 141 141 141 138 134 138 132 122 111 113 114 111 111 114 127 148 155 163 165 170 171 155 121 83 51 40 31 23 12 11 9 3 359 359 352 311 316 317 321
176 131 210 181 207 232 306 9 58 73 50 258 277 282 219 188 161 139 115 111 123 115 95 35 67 218 166 175 143 136 147 190 176 169 163 163 160 163 165 158 154 150 142 148 151 153 156 153 146 146 141 135 138 139 119 120 120 117 123 128 135 156 156 158 159 165 152 118 88 66 62 45 39 22 21 4 6 350 325 305 300 290 284 271 234 238
110 196 195 137 224 223 220 223 123 177 255 269 243 238 269 242 128 122 107 125 148 155 156 158 273 360 243 185 165 167 175 181 178 165 171 172 170 161 155 155 152 149 150 144 142 143 139 146 146 144 140 139 140 133 124 133 128 124 124 128 145 157 163 161 154 135 102 91 85 75 51 36 21 16 27 1 339 328 326 324 325 296 265 269 272 274
160 208 144 187 199 227 182 189 188 173 129 296 356 342 9 100 124 157 201 202 197 185 175 148 152 37 245 246 194 181 191 178 180 164 160 168 172 168 162 157 157 160 157 154 144 149 148 146 143 137 139 144 147 129 135 140 140 134 139 138 145 135 143 144 137 123 119 108 95 90 94 61 45 9 4 311 327 345 343 346 358 336 317 309 297 310